Tracking 31027 objects as of 19-Jul-2025
HD Live streaming from Space Station
objects crossing your sky now

STARLINK-3843

Track STARLINK-3843 now!
10-day predictions
STARLINK-3843 is classified as:


NORAD ID: 52341
Int'l Code: 2022-045L
Perigee: 546.1 km
Apogee: 547.7 km
Inclination: 53.2 °
Period: 95.4 minutes
Semi major axis: 6917 km
RCS: Unknown
Launch date: April 29, 2022
Source: United States (US)
Launch site: AIR FORCE EASTERN TEST RANGE (AFETR)
Your satellite tracking list
ICEYE-X27
Track 1 satellite(s)




NASA's NSSDC Master Catalog

Two Line Element Set (TLE):
1 52341U 22045L   25199.93046905  .00000277  00000-0  35485-4 0  9995
2 52341  53.2166 178.4604 0001193  73.2755 286.8367 15.08839204180350
Source of the keplerian elements: AFSPC